Location: Bothwell
(42.3833°S, 147.0000°E)
Time: 00:12:42
(UTC+10:00)

NOAA 18 - Visible Passes

Search period start: 01 October 2022 23:00
Search period end: 12 October 2022 00:00
Orbit: 839 x 860 km, 98.9° (Epoch: 01 October)

Date Brightness Start Highest point End Pass type
(mag) Time Alt. Az. Time Alt. Az. Time Alt. Az.
01 Oct 7.7 23:39:54 10° S 23:41:08 16° S 23:41:08 16° S visible
03 Oct 7.7 00:27:41 10° S 00:29:01 17° S 00:29:01 17° S visible
04 Oct 7.6 00:15:32 10° S 00:16:53 18° S 00:16:53 18° S visible
05 Oct 7.5 00:03:24 10° SSE 00:04:46 18° SSE 00:04:46 18° SSE visible
05 Oct 7.9 01:46:25 10° SSW 01:46:45 11° SW 01:46:45 11° SW visible
05 Oct 7.5 23:51:20 10° SSE 23:52:38 18° SSE 23:52:38 18° SSE visible
06 Oct 7.8 01:33:37 10° SSW 01:34:38 13° SSW 01:34:38 13° SSW visible
06 Oct 7.5 23:39:18 10° SSE 23:40:31 17° SSE 23:40:31 17° SSE visible
07 Oct 7.7 01:21:03 10° SSW 01:22:31 15° SSW 01:22:31 15° SSW visible
07 Oct 7.5 23:27:19 10° SSE 23:28:24 16° SSE 23:28:24 16° SSE visible
08 Oct 7.6 01:08:38 10° S 01:10:23 17° SSW 01:10:23 17° SSW visible
08 Oct 7.5 23:15:23 10° SSE 23:16:16 14° SE 23:16:16 14° SE visible
09 Oct 7.5 00:56:17 10° S 00:58:15 20° SSW 00:58:15 20° SSW visible
09 Oct 7.6 23:03:33 10° SE 23:04:09 13° SE 23:04:09 13° SE visible
10 Oct 7.4 00:44:01 10° S 00:46:08 22° SSW 00:46:08 22° SSW visible
10 Oct 7.7 22:51:48 10° SE 22:52:01 11° SE 22:52:01 11° SE visible
11 Oct 7.2 00:31:46 10° S 00:34:01 24° S 00:34:01 24° S visible
